Regional Weather Roundup
Issued by NWS Binghamton, NY

Current Version | Previous Version | Text Only | Print | Product List | Glossary On
Versions: 1 2 3 4 5 6 7 8 9 10 11 12 13 14 15 16 17 18 19 20 21 22 23 24 25 26 27 28
000
ASUS41 KBGM 210710
RWRBGM

REGIONAL WEATHER ROUNDUP
NATIONAL WEATHER SERVICE BINGHAMTON NY
200 AM EST SAT JAN 21 2017

Note: "fair" indicates few or no clouds below 12,000 feet with no
significant weather and/or obstructions to visibility.

* = Station(s) that does not report precipitation, such as rain,
snow, etc, also no thunder or fog.

NYZ009-015>018-022>025-036-037-044>046-055>057-062-210800
...Central New York...

CITY           SKY/WX    TMP DP  RH WIND       PRES   REMARKS
Binghamton     FOG       36  36 100 S6        29.82R VSB 1/4 WCI  31
Cortland       LGT RAIN  37  37 100 CALM      29.82S
Dansville      CLOUDY    45  43  93 S6        29.80R
Elmira         CLOUDY    39  37  92 CALM      29.84R FOG
Seneca Falls   CLOUDY    43  43 100 S10       29.82R
Ithaca         CLOUDY    39  39 100 S7        29.84R WCI  34
Hamilton       CLOUDY    37  36  93 SE6       29.83R WCI  33
Monticello     CLOUDY    34  34 100 CALM      29.88R VSB 1/4
Norwich        CLOUDY    37  37 100 SE6       29.85R WCI  33
Oneonta        CLOUDY    36  36 100 SW3       29.82S FOG
Penn Yan       CLOUDY    43  38  82 SW7       29.81R
Rome           CLOUDY    37  36  96 E8        29.84R WCI  31
Sidney         CLOUDY    37  37 100 NW5       29.86R WCI  34
Syracuse       CLOUDY    37  37 100 E3        29.80S
$$

PAZ038>040-043-044-047-048-072-210800
...Northeast Pennsylvania...

CITY           SKY/WX    TMP DP  RH WIND       PRES   REMARKS
Hazleton       FOG       37  37 100 CALM      29.89R VSB 1/4
Scranton       CLOUDY    39  39 100 CALM      29.88R FOG
$$
&&
KEY
WCI = Wind Chill Index
VSB = Visibility
HX  = Heat Index
$$




USA.gov is the U.S. government's official web portal to all federal, state and local government web resources and services.